sat.trackr.live / text

‹ back to catalog

STARLINK-31392

NORAD 59530 · 2024-073V

PAYLOAD ACTIVE UNKNOWN

§ Identity

Operator
Country
US
Launch date
2024-04-17
Launch site
AFETR
Launch vehicle
Mass (kg)
RCS (m²)

Purposes: comms

External: N2YO · Heavens-Above · Gunter

§ Orbital elements

Epoch: 2026-09-21T02:53:15.139968Z

Period
94.27 min
Inclination
42.9991°
Eccentricity
0.0001301
Mean motion
15.27555172 rev/d
Perigee alt
482.2 km
Apogee alt
484.0 km
Semi-major
6,861.3 km
B*
3.9118e-6
RAAN
294.3715°
Arg perigee
280.4545°
Mean anomaly
79.6160°
Rev number
13,606

§ Raw data

STARLINK-313921 59530U 24073V   26264.12031412 -.00000154  00000+0  39118-5 0  99992 59530  42.9991 294.3715 0001301 280.4545  79.6160 15.27555172136067

JSON: /api/v1/satellites/59530 · /tle

For live sub-satellite position, see the globe view (requires WebGL).

§ Visibility from observer

Set your observer location to see the next 7 days of passes ≥ 10°. The values pass through the URL so the page stays shareable.

No JS? Fill the form by hand. The geolocation button needs JavaScript.